sat.trackr.live / text

‹ back to catalog

JILIN-01 KUANFU 02B 4

NORAD 61192 · 2024-169D

PAYLOAD ACTIVE UNKNOWN

§ Identity

Operator
Country
PRC
Launch date
2024-09-20
Launch site
TAISC
Launch vehicle
Mass (kg)
RCS (m²)

External: N2YO · Heavens-Above · Gunter

§ Orbital elements

Epoch: 2026-05-25T04:37:41.065824Z

Period
95.45 min
Inclination
97.5518°
Eccentricity
0.0012869
Mean motion
15.08670598 rev/d
Perigee alt
531.4 km
Apogee alt
549.2 km
Semi-major
6,918.4 km
B*
2.5858e-4
RAAN
234.4410°
Arg perigee
350.7419°
Mean anomaly
9.3571°
Rev number
9,236

§ Raw data

JILIN-01 KUANFU 02B 41 61192U 24169D   26145.19283641  .00003995  00000+0  25858-3 0  99992 61192  97.5518 234.4410 0012869 350.7419   9.3571 15.08670598 92363

JSON: /api/v1/satellites/61192 · /tle

For live sub-satellite position, see the globe view (requires WebGL).

§ Visibility from observer

Set your observer location to see the next 7 days of passes ≥ 10°. The values pass through the URL so the page stays shareable.

No JS? Fill the form by hand. The geolocation button needs JavaScript.